RH
23 24 26 20 19 16 15 15 15 16 22 41 44 44 46 42 39 40 44 43 41 40 36 37 40 40 43 46 52 55 59 64 64 63 63 63 60 56 55 59 68 69 68 71
14 18 15 12 11 13 12 13 14 27 36 37 45 44 41 44 41 38 39 39 37 35 34 38 38 38 40 45 51 58 62 67 66 60 61 60 60 54 55 64 70 70 71 76
18 15 12 12 8 8 8 9 12 22 41 37 43 44 44 42 40 38 36 34 33 33 31 33 36 35 37 43 52 58 64 66 67 65 63 66 66 68 66 69 64 65 67 69
15 12 12 9 8 7 7 7 16 37 36 28 37 27 47 44 45 42 38 37 35 33 32 30 32 34 35 39 45 53 61 66 64 70 65 71 59 57 53 62 65 62 67 63
14 10 9 9 8 7 8 14 26 38 27 22 33 32 35 45 49 45 38 36 36 34 30 30 30 32 31 35 42 50 63 68 65 70 70 64 66 52 58 63 73 74 68 64
13 9 8 8 7 7 7 8 15 23 22 21 27 30 19 40 39 40 36 35 35 40 32 29 29 30 33 34 41 46 64 70 68 70 71 74 71 66 64 68 66 64 58 58
10 8 7 7 8 7 8 6 10 14 19 20 28 27 20 20 30 29 37 36 34 35 35 32 32 31 35 37 43 46 61 67 66 66 65 68 70 72 72 71 60 64 60 61
12 8 8 7 7 7 7 6 9 16 15 12 28 23 18 21 20 27 26 31 34 33 31 30 31 32 38 39 44 46 54 63 63 65 70 73 74 61 58 62 57 58 57 62
12 10 6 7 7 7 10 9 8 12 19 18 21 22 20 23 28 26 27 32 36 33 31 35 32 32 36 38 43 47 53 57 59 54 67 74 74 73 65 70 68 57 69 64
11 13 8 8 8 9 8 8 8 11 15 16 22 25 16 25 33 33 31 33 34 34 32 30 33 31 33 32 35 41 46 50 54 54 60 60 67 71 69 68 71 67 68 75
8 9 11 13 15 15 13 14 11 10 12 12 12 11 21 32 35 34 30 33 32 34 34 32 35 32 34 34 36 38 44 51 55 58 65 68 66 63 65 64 67 68 66 76
10 8 14 21 18 19 20 15 12 14 19 18 15 11 32 42 34 40 34 32 34 35 33 33 34 35 38 36 41 47 49 51 57 64 68 68 62 64 58 63 62 68 72 73
16 17 21 18 13 18 24 30 14 10 11 22 14 10 22 47 48 51 48 39 36 39 40 37 34 38 42 40 44 54 61 60 58 62 58 55 59 58 57 58 58 64 72 75
35 17 18 16 19 21 27 35 21 13 15 17 15 16 24 52 60 55 56 48 39 39 44 43 41 46 50 57 62 64 55 54 58 54 55 58 59 60 54 59 66 62 72 73
19 23 24 22 22 26 30 32 36 30 38 27 25 35 37 56 63 66 63 56 47 43 40 39 42 48 55 57 58 60 56 58 55 65 66 69 66 65 67 72 72 69 71 73
20 27 26 29 27 32 31 38 40 42 49 49 45 38 50 56 62 69 75 75 80 77 70 62 46 43 46 51 56 59 63 63 60 65 64 70 75 77 77 78 78 79 78 78
23 23 26 29 31 30 30 28 39 47 50 45 37 47 52 57 65 75 86 76 78 78 81 76 71 68 58 45 49 49 56 59 70 73 70 72 76 78 81 79 81 84 83 81
26 29 30 26 34 41 28 43 38 42 45 47 49 54 53 58 58 65 70 67 68 68 74 74 72 68 68 63 58 55 47 64 67 70 72 74 77 79 79 80 83 82 80 83
26 29 35 33 29 30 34 40 41 37 34 42 45 51 52 55 50 61 64 67 72 70 79 73 72 69 76 72 72 70 65 58 62 66 71 74 76 78 79 82 82 81 82 88
31 33 28 40 32 35 37 47 44 43 32 43 46 47 54 58 66 66 64 72 74 75 86 90 72 61 67 76 75 78 81 79 84 83 79 75 77 80 80 80 82 81 88 96
41 42 35 38 35 34 38 42 45 43 40 45 49 52 53 61 66 67 71 72 80 87 79 71 84 68 78 78 71 89 89 89 90 83 83 84 83 84 82 83 85 96 98 98
48 43 39 46 44 41 44 44 45 45 44 45 50 54 61 59 58 57 59 73 84 90 85 82 85 63 75 79 78 75 92 92 95 94 93 94 94 92 91 95 99 99 99 99
51 47 46 41 38 46 49 49 45 52 52 48 48 47 47 47 49 52 56 64 71 77 79 70 64 61 66 82 86 83 93 90 90 93 95 92 95 94 94 97 99 99 99 98
60 69 52 54 50 47 43 41 47 46 48 47 48 47 48 49 45 46 46 49 54 58 64 67 69 70 73 77 83 85 85 86 89 91 94 94 92 93 93 92 94 98 99 99
49 67 56 50 45 44 47 49 49 48 50 51 46 45 42 43 46 49 46 49 52 57 62 71 77 74 66 66 79 83 84 84 91 89 89 94 93 95 96 94 86 86 88 91
48 48 43 38 47 52 50 50 50 51 46 44 47 45 44 48 51 50 48 48 48 49 56 63 76 74 71 71 83 87 83 85 85 91 86 88 89 91 87 85 87 98 97 100
Wind_Speed
3 3 3 6 4 8 8 10 9 8 5 9 14 10 12 15 14 16 17 17 17 17 18 16 16 16 14 14 14 14 13 13 9 7 6 6 6 4 5 4 3 3 4 6
4 5 4 4 7 6 6 7 3 1 1 10 5 14 12 17 19 20 20 18 19 18 16 15 16 17 18 17 16 15 15 13 12 8 6 4 3 4 3 3 3 3 4 4
4 0 0 4 6 5 1 5 5 2 6 3 2 5 13 14 13 17 17 18 18 20 19 14 16 18 17 17 18 17 16 14 13 12 6 4 2 3 4 4 4 5 4 4
4 0 6 6 6 2 4 2 3 6 5 3 4 2 4 12 18 18 19 19 19 20 18 16 15 16 18 18 15 15 15 15 12 12 9 10 8 8 6 4 4 4 5 4
2 2 3 3 4 4 4 6 5 3 2 2 2 5 4 6 14 19 22 22 21 20 20 19 17 18 18 15 15 15 14 14 13 13 11 11 11 7 3 4 5 5 2 3
7 1 4 3 3 5 1 1 4 3 2 4 3 4 2 5 8 16 19 22 22 18 19 19 17 15 14 13 13 13 15 14 13 13 14 13 12 9 6 5 5 4 3 3
3 6 3 4 5 3 2 2 3 2 2 2 1 4 6 5 9 10 21 23 23 19 20 19 17 15 13 15 15 13 15 16 15 15 14 14 13 12 11 9 5 5 4 4
3 4 4 5 4 1 2 4 4 2 2 3 2 4 2 3 6 9 12 19 19 20 20 20 20 17 16 17 17 16 15 15 16 16 15 12 12 9 9 9 6 5 6 6
3 2 2 2 1 2 4 4 3 6 1 4 3 3 4 1 5 5 8 14 19 21 21 20 20 17 16 16 17 18 17 17 16 18 13 12 12 12 10 10 8 6 7 5
3 3 0 1 2 7 2 6 3 1 0 1 1 4 4 9 10 6 5 12 15 17 18 17 17 18 16 17 17 16 17 17 17 16 14 13 13 13 12 10 10 10 7 8
5 4 2 2 7 3 2 2 6 4 3 1 3 3 8 7 9 12 7 6 11 16 18 18 17 17 17 15 14 17 16 15 15 15 13 13 13 14 12 12 11 10 9 9
3 1 2 5 2 2 2 3 2 2 3 3 3 3 7 10 6 11 9 7 4 10 12 14 15 15 15 16 14 15 15 15 16 14 12 14 13 13 14 13 13 11 11 10
3 1 5 4 4 3 2 3 3 5 1 2 3 3 3 15 12 11 9 8 5 6 8 10 13 15 16 15 14 13 13 15 14 13 15 15 15 15 15 15 14 13 13 12
1 3 4 5 2 3 3 1 2 2 2 4 5 11 12 18 16 15 13 8 5 3 8 10 10 12 13 12 11 12 14 14 13 14 14 14 15 15 15 13 13 14 13 13
3 3 1 2 2 2 2 3 4 1 2 5 5 8 11 13 13 13 12 11 9 8 2 6 9 8 7 9 10 10 11 11 12 13 13 14 14 13 12 12 13 14 14 13
5 1 0 3 3 3 1 1 2 2 3 5 5 7 6 8 9 13 16 14 15 17 15 13 4 4 7 10 12 12 12 12 11 12 15 12 11 12 13 13 13 12 14 13
5 3 3 4 1 1 5 4 2 2 3 2 3 3 6 10 14 14 13 14 16 16 16 16 14 12 7 4 8 11 11 11 12 12 12 11 11 12 13 13 13 14 14 12
4 3 0 2 4 7 4 1 2 3 3 4 4 3 5 8 9 11 13 13 14 18 19 17 15 14 12 10 6 2 7 10 11 11 11 11 11 12 12 12 13 13 10 10
5 4 3 4 8 3 3 2 2 2 0 4 2 2 2 5 9 9 9 11 11 13 10 13 18 13 11 11 10 7 7 5 6 8 9 10 11 12 12 13 12 10 9 7
5 2 4 3 5 7 3 3 2 2 4 3 1 1 5 1 1 3 5 5 10 12 11 19 20 17 12 9 8 9 9 7 5 3 4 6 8 10 10 10 8 6 5 7
2 2 5 4 4 1 1 0 2 5 4 5 4 3 1 3 2 5 2 3 5 5 11 9 8 15 12 10 6 6 5 5 5 4 4 2 2 4 4 3 2 5 8 9
2 1 2 2 2 4 1 3 3 4 1 3 5 4 2 1 4 7 8 8 9 11 5 11 7 20 3 7 8 4 5 1 2 4 5 5 5 4 3 6 6 7 9 10
3 2 2 4 2 1 2 4 1 2 4 3 1 1 3 3 3 5 9 11 11 12 12 15 15 12 1 4 8 6 2 2 1 3 5 5 5 6 6 5 6 4 5 5
3 3 3 3 3 4 3 4 5 5 8 5 4 3 4 6 8 7 7 9 9 11 12 12 9 9 11 7 7 4 1 3 5 4 4 5 5 7 6 5 5 4 4 4
1 5 3 4 5 4 6 4 4 3 3 4 4 6 4 6 8 6 5 5 7 9 11 10 10 7 6 6 1 3 2 3 5 4 3 4 5 6 6 6 4 4 3 2
7 6 5 3 1 1 1 2 4 4 2 4 3 3 2 5 8 9 9 7 2 5 7 8 10 9 8 5 4 4 4 3 5 5 4 3 3 3 5 5 5 9 7 6
Wind_Direction
141 211 244 309 284 286 288 286 305 280 226 185 211 213 188 188 190 183 188 191 198 205 213 214 212 211 207 203 201 203 199 199 194 200 211 229 240 230 232 248 265 240 202 199
167 243 242 289 273 269 276 287 24 144 276 211 218 227 208 189 200 192 188 196 201 211 212 210 209 207 207 205 205 201 208 199 199 200 208 215 217 238 250 241 206 214 194 211
236 62 201 268 283 307 244 342 6 33 133 225 211 234 200 207 207 204 204 202 202 208 213 204 204 206 207 207 204 202 201 202 201 204 196 171 164 210 207 212 212 214 198 205
276 69 231 233 280 265 306 308 327 135 145 330 256 315 195 202 208 208 203 202 206 206 215 218 203 203 207 213 209 204 198 198 202 194 199 201 216 217 213 207 205 197 198 191
216 219 199 262 258 202 313 25 17 102 111 281 162 259 115 182 211 214 208 205 205 205 210 215 206 205 211 204 206 202 194 193 195 192 201 200 221 229 190 202 206 226 200 219
260 296 255 241 249 229 68 142 61 77 2 252 40 293 230 195 211 214 211 212 206 199 208 217 217 209 210 204 202 198 190 191 193 194 200 206 217 218 206 203 213 192 189 195
279 238 250 215 260 130 181 230 321 230 229 319 54 259 283 258 238 222 203 209 207 201 206 213 214 209 205 203 201 198 193 191 197 199 204 209 218 220 223 220 216 192 210 210
305 199 206 153 246 343 178 274 242 284 205 341 155 252 63 252 293 256 219 210 200 209 207 210 213 210 203 202 199 197 198 193 197 198 205 207 210 220 225 226 229 219 219 218
220 235 280 216 236 313 130 189 42 116 103 259 355 278 266 163 24 75 176 192 194 201 209 208 210 208 207 203 200 199 199 199 198 202 200 205 210 219 222 221 218 226 223 223
192 251 42 82 133 67 281 124 168 92 288 330 48 288 324 25 24 24 166 192 198 205 206 204 209 208 205 208 206 202 204 203 200 201 203 208 212 215 221 222 223 224 223 219
183 244 143 210 19 352 155 139 69 110 343 346 333 315 9 357 19 356 347 234 210 202 199 203 203 206 206 201 198 202 204 205 198 198 200 205 213 216 220 223 227 226 222 216
183 261 64 96 72 46 27 49 345 348 125 60 335 273 40 31 16 5 3 357 238 234 222 200 195 196 203 201 199 202 199 201 202 196 198 207 210 217 221 222 226 222 222 217
149 225 131 167 191 154 51 50 75 89 92 172 265 289 52 19 5 359 347 333 314 229 223 215 194 192 196 203 202 197 195 203 203 199 203 209 211 214 221 222 223 221 222 221
146 105 285 209 92 97 160 144 127 299 279 141 246 297 332 0 348 343 349 334 319 220 195 207 211 203 194 192 198 200 206 208 204 205 209 214 215 219 222 222 215 219 219 219
16 76 347 67 79 153 136 149 157 155 79 275 22 288 336 349 345 343 347 10 53 45 47 207 205 190 194 209 210 215 227 217 207 204 206 212 214 220 225 224 218 217 220 220
5 80 315 134 61 46 214 153 119 119 152 250 283 288 358 6 36 26 27 33 45 50 49 43 346 212 189 201 211 207 212 219 213 216 219 213 210 212 218 221 224 224 221 217
310 187 169 196 33 355 247 219 215 138 220 285 294 358 6 47 32 16 2 29 32 29 35 50 44 37 49 231 232 223 216 212 213 221 229 224 215 218 219 219 218 225 223 211
244 178 228 114 154 219 60 70 259 257 207 203 281 320 84 56 64 38 29 32 31 36 7 24 31 19 17 26 18 164 205 207 215 225 233 231 224 222 222 223 226 233 232 223
229 193 143 212 211 342 190 195 263 295 135 197 300 356 83 124 100 56 50 21 24 10 11 22 354 6 359 19 26 54 100 154 200 226 235 237 231 228 224 227 229 231 228 211
104 75 239 164 238 242 65 133 317 271 250 97 288 313 42 163 243 89 41 53 3 14 0 11 342 330 342 14 29 39 37 57 52 352 240 222 230 233 232 238 242 237 219 146
104 95 211 183 237 113 81 264 177 232 53 4 358 349 9 81 39 158 206 350 324 328 360 2 286 285 332 345 2 69 27 21 7 21 30 43 177 216 233 221 192 134 126 118
306 247 167 160 222 221 116 152 260 47 104 14 52 66 81 263 243 246 222 214 205 235 169 230 266 249 315 342 328 329 103 343 1 32 29 42 46 50 67 98 97 119 130 142
233 304 350 260 32 88 217 281 307 237 268 281 160 44 337 311 231 223 228 222 223 227 213 237 252 292 16 245 272 288 96 113 95 98 89 60 59 74 78 101 114 121 134 151
187 179 249 267 139 243 295 285 246 260 266 266 252 266 242 278 293 288 243 231 215 216 227 244 244 228 233 245 265 291 358 94 68 37 62 84 81 81 83 93 103 105 114 126
34 166 196 260 277 291 81 39 330 301 240 235 236 223 239 292 316 321 309 246 228 221 230 230 243 240 215 205 190 246 164 136 110 85 81 72 89 96 91 62 51 105 109 119
195 202 211 259 131 270 273 340 323 280 243 230 300 307 345 306 318 333 328 326 277 246 243 236 229 219 207 176 170 352 247 143 137 166 127 114 103 109 106 115 115 61 67 71